Location: *
(11.7485°N, 79.7483°E)
Time: 11:21:12
(UTC+00:00)

CZ-4B R/B - Pass Details

Date: 22 January 2021
Orbit: 387 x 458 km, 97.6° (Epoch: 24 February)

Event Time Altitude Azimuth Distance (km) Brightness Sun altitude
Rises 00:36:27 0° 189° (S) 2,392 5.2 -7.7°
Reaches altitude 10° 00:38:39 10° 202° (SSW) 1,539 4.1 -7.1°
Maximum altitude 00:41:27 26° 260° (W) 914 2.5 -6.5°
Drops below altitude 10° 00:44:18 10° 319° (NW) 1,570 3.6 -5.8°
Sets 00:46:34 0° 332° (NNW) 2,451 4.7 -5.3°
